Voltar ao catálogo

APEX ARIES 1

AtivoCiênciaPO
NORAD 59129·PAYLOAD·🇺🇸 United States

Lançado Mar 4, 2024 de Vandenberg Space Force Base

Loading…

Próximas Passagens (próximas 24 horas)

TLE

AtualizadoSource: Space-Track

Época: Sep 14, 2026, 21:03 UTC

1 59129U 24043AH  26257.87761934  .00027094  00000-0  33798-3 0  9991
2 59129  97.5584  53.4729 0004246 220.4182 139.6759 15.59855894141882

Acompanhe APEX ARIES 1 em tempo real com AllMySat

Download on the App Store